{"data":{"norad_id":52986,"epoch":"2026-09-19T14:11:49.751520Z","epoch_age_seconds":147426,"freshness":"FRESH","line1":"1 52986U 22076A   26262.59154805  .00002531  00000+0  83442-4 0  9997","line2":"2 52986  53.1600 288.2361 0001364  82.9072 277.2086 15.35400698232324","mean_motion":15.35400698,"eccentricity":0.0001364,"inclination_deg":53.16,"raan_deg":288.2361,"arg_perigee_deg":82.9072,"mean_anomaly_deg":277.2086,"bstar":8.3442e-5,"rev_number":23232,"period_min":93.786592768632,"perigee_km":458.79788525366,"apogee_km":460.66325552686,"semimajor_km":6837.8675703903,"source":"CELESTRAK","updated_at":"2026-09-20T09:00:40.138540Z"}}